Tracking 19219 objects as of 19-Jul-2018
HD Live streaming from Space Station
objects crossing your sky now

TEMPSAT 2

Track TEMPSAT 2 now!
10-day predictions
TEMPSAT 2 is classified as:


NORAD ID: 4168
Int'l Code: 1969-082H
Perigee: 900.1 km
Apogee: 932.9 km
Inclination: 70.0 °
Period: 103.2 minutes
Semi major axis: 7287 km
RCS: 0.0673 m2 (small)
Launch date: September 30, 1969
Source: United States (US)
Launch site: AIR FORCE WESTERN TEST RANGE (AFWTR)
aabbcc
Your satellite tracking list
Your tracking list is empty




NASA's NSSDC Master Catalog

Two Line Element Set (TLE):
1  4168U 69082H   18200.25503214 -.00000041 +00000-0 +89989-5 0  9991
2  4168 070.0145 148.4609 0022477 289.8580 070.0103 13.95515586484928
Source of the keplerian elements: AFSPC